FW2343 Weather Reports


time (UTC)temp
C
wind
direction
speed
KPH
gust
KPH
rain 1hr
cm
rain 24hr
cm
rain mn
cm
humidity
%
barometer
mb
20260507160706 22 300 4.8 12.9 0.00 0.20 0.00 37 1010.6
20260507160215 22 279 3.2 8.0 0.00 0.20 0.00 37 1010.7
20260507155711 22 0 3.2 9.7 0.00 0.20 0.00 37 1010.8
20260507155206 22 292 3.2 12.9 0.00 0.20 0.00 38 1010.9
20260507154711 22 14 6.4 12.9 0.00 0.20 0.00 39 1010.8
20260507154210 21 351 8.0 12.9 0.00 0.20 0.00 39 1010.8
20260507153705 21 30 6.4 6.4 0.00 0.20 0.00 38 1010.8
20260507153205 21 113 1.6 12.9 0.00 0.20 0.00 38 1010.8
20260507152715 22 291 1.6 12.9 0.00 0.20 0.00 39 1010.8
20260507152206 22 288 4.8 11.3 0.00 0.20 0.00 38 1010.8
20260507151709 22 15 4.8 14.5 0.00 0.20 0.00 41 1011.0
20260507151209 21 343 4.8 14.5 0.00 0.20 0.00 40 1010.9
20260507150705 21 300 6.4 8.0 0.00 0.20 0.00 40 1011.0
20260507150219 21 275 3.2 8.0 0.00 0.20 0.00 37 1011.0
20260507145714 22 358 3.2 8.0 0.00 0.20 0.00 39 1011.1
20260507145208 21 310 1.6 8.0 0.00 0.20 0.00 42 1011.1
20260507144211 21 0 0.0 6.4 0.00 0.20 0.00 42 1011.1
20260507143218 21 154 1.6 14.5 0.00 0.20 0.00 44 1011.2
20260507142711 21 61 4.8 16.1 0.00 0.20 0.00 46 1011.4
20260507142209 20 47 4.8 16.1 0.00 0.20 0.00 45 1011.5
20260507141712 21 59 8.0 16.1 0.00 0.20 0.00 47 1011.5
20260507141205 21 71 3.2 12.9 0.00 0.20 0.00 46 1011.6
20260507135218 20 64 6.4 12.9 0.00 0.20 0.00 46 1012.0
20260507134716 20 78 4.8 9.7 0.00 0.20 0.00 47 1012.1
20260507134217 20 60 3.2 9.7 0.00 0.20 0.00 47 1012.2
20260507133719 20 149 0.0 12.9 0.00 0.20 0.00 48 1012.2
20260507133218 20 358 1.6 16.1 0.00 0.20 0.00 47 1012.4
20260507132207 20 330 4.8 14.5 0.00 0.20 0.00 48 1012.5
20260507130711 19 45 4.8 14.5 0.00 0.20 0.00 52 1012.6
20260507130214 19 33 3.2 14.5 0.00 0.20 0.00 52 1012.6
20260507125713 19 4 4.8 4.8 0.00 0.20 0.00 52 1012.7
20260507125216 19 340 0.0 6.4 0.00 0.20 0.00 52 1012.7
20260507124718 20 333 0.0 9.7 0.00 0.20 0.00 52 1012.7
20260507123717 19 358 1.6 9.7 0.00 0.20 0.00 53 1012.8
20260507123212 19 344 0.0 8.0 0.00 0.20 0.00 53 1012.8
20260507122713 20 334 0.0 20.9 0.00 0.20 0.00 51 1012.9
20260507122217 20 278 1.6 20.9 0.00 0.20 0.00 50 1013.0
20260507121706 20 16 4.8 9.7 0.00 0.20 0.00 50 1013.0
20260507121230 20 258 0.0 12.9 0.00 0.20 0.00 52 1013.0
20260507120713 19 261 1.6 12.9 0.00 0.20 0.00 52 1013.1
20260507120218 19 50 1.6 12.9 0.00 0.20 0.00 52 1013.2
20260507115713 19 0 0.0 9.7 0.00 0.20 0.00 53 1013.1
20260507115218 19 227 1.6 12.9 0.00 0.20 0.00 53 1013.2
20260507114706 18 282 0.0 12.9 0.00 0.20 0.00 53 1013.4
20260507113712 18 272 1.6 12.9 0.00 0.20 0.00 52 1013.4
20260507113206 18 345 3.2 11.3 0.00 0.20 0.00 56 1013.5
20260507112707 18 7 1.6 9.7 0.00 0.20 0.00 54 1013.5
20260507112208 18 305 1.6 9.7 0.00 0.20 0.00 52 1013.5
20260507111705 18 289 3.2 11.3 0.00 0.20 0.00 52 1013.5
20260507111232 18 150 0.0 12.9 0.00 0.20 0.00 52 1013.7
20260507110713 18 209 3.2 12.9 0.00 0.20 0.00 53 1013.7
20260507110205 18 232 1.6 11.3 0.00 0.20 0.00 54 1013.7
20260507105206 17 350 3.2 17.7 0.00 0.20 0.00 55 1013.9
20260507104729 17 262 1.6 17.7 0.00 0.20 0.00 53 1013.8
20260507104219 17 123 0.0 9.7 0.00 0.20 0.00 53 1013.8
20260507103213 17 279 1.6 16.1 0.00 0.20 0.00 59 1014.0
20260507102712 17 251 3.2 8.0 0.00 0.20 0.00 57 1014.0
20260507102209 17 262 1.6 11.3 0.00 0.20 0.00 57 1013.9
20260507101235 17 279 3.2 11.3 0.00 0.20 0.00 57 1014.0
20260507100707 17 281 4.8 11.3 0.00 0.20 0.00 61 1014.1
20260507100217 17 352 4.8 11.3 0.00 0.20 0.00 62 1014.1
20260507095716 17 19 4.8 11.3 0.00 0.20 0.00 67 1014.1
20260507095218 16 129 0.0 8.0 0.00 0.20 0.00 65 1014.2
20260507094717 17 125 0.0 8.0 0.00 0.20 0.00 64 1014.2
20260507093738 16 73 1.6 12.9 0.00 0.20 0.00 67 1014.3
20260507093217 16 333 1.6 12.9 0.00 0.20 0.00 66 1014.2
20260507092710 16 279 1.6 8.0 0.00 0.20 0.00 66 1014.2
20260507092210 16 0 0.0 8.0 0.00 0.20 0.00 65 1014.2
20260507090714 16 226 3.2 16.1 0.00 0.20 0.00 66 1014.3
20260507090214 15 213 3.2 0.0 0.00 0.20 0.00 70 1014.3
20260507085719 15 0 0.0 0.0 0.00 0.20 0.00 70 1014.3
20260507084717 15 0 0.0 1.6 0.00 0.20 0.00 71 1014.3
20260507083717 15 300 0.0 6.4 0.00 0.20 0.00 71 1014.3
20260507082717 15 261 0.0 6.4 0.00 0.20 0.00 74 1014.3
20260507082217 14 0 0.0 0.0 0.00 0.20 0.00 72 1014.3
20260507081705 15 0 0.0 0.0 0.00 0.20 0.00 74 1014.4
20260507081218 15 0 0.0 0.0 0.00 0.20 0.00 74 1014.4
20260507080709 14 0 0.0 0.0 0.00 0.20 0.00 75 1014.4
20260507080210 14 0 0.0 0.0 0.00 0.20 0.00 77 1014.4
20260507075711 13 0 0.0 0.0 0.00 0.20 0.00 76 1014.4
20260507075215 13 0 0.0 0.0 0.00 0.20 0.00 77 1014.4
20260507074705 13 0 0.0 0.0 0.00 0.20 0.00 77 1014.4
20260507074212 13 0 0.0 0.0 0.00 0.20 0.00 77 1014.3
20260507073718 13 0 0.0 0.0 0.00 0.20 0.00 79 1014.3
20260507072710 12 0 0.0 0.0 0.00 0.20 0.00 83 1014.4
20260507071716 12 0 0.0 0.0 0.00 0.20 0.00 86 1014.4
20260507071207 11 0 0.0 0.0 0.00 0.20 0.00 87 1014.5
20260507070707 11 0 0.0 0.0 0.00 0.20 0.00 87 1014.6
20260507070218 11 0 0.0 0.0 0.00 0.20 0.00 88 1014.6
20260507065712 11 0 0.0 0.0 0.00 0.20 0.00 88 1014.6
20260507065209 11 0 0.0 0.0 0.00 0.20 0.00 90 1014.6
20260507064213 10 0 0.0 0.0 0.00 0.20 0.00 91 1014.5
20260507063710 10 0 0.0 0.0 0.00 0.20 0.00 91 1014.7
20260507063212 10 0 0.0 6.4 0.00 0.20 0.00 92 1014.7
20260507062710 10 0 0.0 9.7 0.00 0.20 0.00 92 1014.7
20260507062218 9 208 0.0 9.7 0.00 0.20 0.00 93 1014.6
20260507061717 9 180 4.8 9.7 0.00 0.20 0.00 93 1014.6
20260507061206 9 217 4.8 9.7 0.00 0.20 0.00 93 1014.5
20260507060714 9 212 6.4 9.7 0.00 0.20 0.00 93 1014.7
20260507060207 8 203 3.2 6.4 0.00 0.20 0.00 94 1014.8
20260507055717 8 236 3.2 6.4 0.00 0.20 0.00 94 1014.7
20260507054207 8 232 3.2 8.0 0.00 0.20 0.00 95 1014.5
20260507053216 8 205 1.6 6.4 0.00 0.20 0.00 95 1014.5
20260507052705 8 220 3.2 6.4 0.00 0.20 0.00 95 1014.4
20260507052209 8 243 0.0 0.0 0.00 0.20 0.00 95 1014.4
20260507051712 7 0 0.0 1.6 0.00 0.20 0.00 95 1014.3
20260507051213 7 239 0.0 1.6 0.00 0.20 0.00 95 1014.4
20260507050706 7 239 0.0 3.2 0.00 0.20 0.00 95 1014.3
20260507050240 7 195 0.0 3.2 0.00 0.20 0.00 95 1014.3
20260507045715 7 240 0.0 3.2 0.00 0.20 0.00 95 1014.3
20260507044709 7 0 0.0 0.0 0.00 0.20 0.00 95 1014.2
20260507044217 7 0 0.0 0.0 0.00 0.20 0.00 94 1014.2
20260507043712 7 0 0.0 0.0 0.00 0.20 0.00 94 1014.2
20260507043215 7 0 0.0 0.0 0.00 0.20 0.00 94 1014.2
20260507042718 7 0 0.0 0.0 0.00 0.20 0.00 94 1014.2
20260507042211 7 0 0.0 0.0 0.00 0.20 0.00 94 1014.2
20260507041719 7 0 0.0 0.0 0.00 0.20 0.00 94 1014.1
20260507040719 7 0 0.0 0.0 0.00 0.20 0.00 94 1014.1
20260507035715 7 0 0.0 0.0 0.00 0.20 0.00 94 1014.1
20260507035218 8 0 0.0 0.0 0.00 0.20 0.00 94 1014.1
20260507034709 8 0 0.0 0.0 0.00 0.20 0.00 94 1014.1
20260507034215 8 0 0.0 0.0 0.00 0.20 0.00 94 1014.2
20260507033215 8 0 0.0 0.0 0.00 0.20 0.00 94 1014.1
20260507032210 8 0 0.0 0.0 0.00 0.20 0.00 94 1014.2
20260507031212 8 0 0.0 0.0 0.00 0.20 0.00 94 1014.2
20260507030709 8 0 0.0 0.0 0.00 0.20 0.00 94 1014.2
20260507030208 8 0 0.0 0.0 0.00 0.20 0.00 94 1014.2
20260507025715 8 0 0.0 0.0 0.00 0.20 0.00 94 1014.2
20260507025214 8 0 0.0 0.0 0.00 0.20 0.00 94 1014.1
20260507024716 8 0 0.0 0.0 0.00 0.20 0.00 93 1014.2
20260507024205 8 0 0.0 0.0 0.00 0.20 0.00 93 1014.2
20260507023712 8 0 0.0 0.0 0.00 0.20 0.00 93 1014.1
20260507023213 8 0 0.0 0.0 0.00 0.20 0.00 93 1014.2
20260507022718 8 0 0.0 0.0 0.00 0.20 0.00 93 1014.2
20260507022213 8 0 0.0 0.0 0.00 0.20 0.00 93 1014.2
20260507021211 8 0 0.0 4.8 0.00 0.20 0.00 93 1014.3
20260507020719 9 0 0.0 4.8 0.00 0.20 0.00 93 1014.2
20260507020212 9 161 3.2 3.2 0.00 0.20 0.00 93 1014.3
20260507015205 9 0 0.0 0.0 0.00 0.20 0.00 93 1014.3
20260507014214 9 0 0.0 0.0 0.00 0.20 0.00 93 1014.3
20260507013218 9 0 0.0 0.0 0.00 0.20 0.00 93 1014.4
20260507012733 9 0 0.0 0.0 0.00 0.20 0.00 92 1014.4
20260507012226 9 0 0.0 1.6 0.00 0.20 0.00 92 1014.4
20260507011705 9 0 0.0 1.6 0.00 0.20 0.00 92 1014.5
20260507011217 9 170 0.0 1.6 0.00 0.20 0.00 92 1014.5
20260507010215 9 205 0.0 4.8 0.00 0.20 0.00 92 1014.6
20260507005713 10 180 1.6 6.4 0.00 0.20 0.00 91 1014.7
20260507005206 10 241 1.6 6.4 0.00 0.20 0.00 91 1014.7
20260507004717 10 237 1.6 4.8 0.00 0.20 0.00 91 1014.7
20260507004206 10 246 1.6 6.4 0.00 0.20 0.00 91 1014.8
20260507003712 10 206 3.2 6.4 0.00 0.20 0.00 91 1014.8
20260507002210 10 181 3.2 6.4 0.00 0.20 0.00 91 1014.7
20260507001710 10 185 3.2 8.0 0.00 0.20 0.00 90 1014.7
20260507001212 10 196 3.2 8.0 0.00 0.20 0.00 90 1014.7
20260507000717 10 194 4.8 8.0 0.00 0.20 0.00 90 1014.8
20260506235718 10 213 3.2 6.4 0.00 0.20 0.00 90 1014.8
20260506235211 10 202 3.2 8.0 0.00 0.20 0.00 90 1014.8
20260506234707 10 199 4.8 8.0 0.00 0.20 0.00 90 1014.8
20260506234234 10 236 4.8 8.0 0.00 0.20 0.00 89 1014.8
20260506233716 10 213 4.8 9.7 0.00 0.20 0.00 89 1014.8
20260506233207 10 188 4.8 9.7 0.00 0.20 0.00 89 1014.7
20260506232205 11 217 4.8 6.4 0.00 0.20 0.00 89 1014.8
20260506231715 11 206 3.2 6.4 0.00 0.20 0.00 89 1014.8
20260506230216 11 199 0.0 4.8 0.00 0.20 0.00 90 1014.8
20260506225713 11 216 1.6 4.8 0.00 0.20 0.00 90 1014.7
20260506225207 11 220 3.2 4.8 0.00 0.20 0.00 90 1014.7
20260506224713 11 216 3.2 4.8 0.00 0.20 0.00 90 1014.8
20260506224205 11 189 1.6 4.8 0.00 0.20 0.00 90 1014.8
20260506223717 11 213 1.6 4.8 0.00 0.20 0.00 91 1014.7
20260506223208 11 182 1.6 4.8 0.00 0.20 0.00 90 1014.7
20260506222716 11 203 1.6 3.2 0.00 0.20 0.00 90 1014.8
20260506222214 11 209 1.6 4.8 0.00 0.20 0.00 90 1014.7
20260506221714 11 0 0.0 4.8 0.00 0.20 0.00 89 1014.6
20260506221208 11 233 1.6 6.4 0.00 0.20 0.00 89 1014.6
20260506220709 11 229 1.6 8.0 0.00 0.20 0.00 89 1014.7
20260506220217 11 243 3.2 8.0 0.00 0.20 0.20 89 1014.5
20260506215712 11 230 3.2 8.0 0.00 0.20 0.20 89 1014.5
20260506215207 11 220 3.2 6.4 0.00 0.20 0.20 88 1014.5
20260506214707 11 202 3.2 6.4 0.00 0.20 0.20 88 1014.4
20260506213712 12 182 3.2 4.8 0.00 0.20 0.20 88 1014.4
20260506213219 12 215 3.2 8.0 0.00 0.20 0.20 88 1014.4
20260506212710 12 229 3.2 8.0 0.00 0.20 0.20 89 1014.4
20260506212215 12 215 3.2 8.0 0.00 0.20 0.20 89 1014.4
20260506211714 12 209 3.2 6.4 0.00 0.20 0.20 89 1014.3
20260506211210 12 0 0.0 3.2 0.00 0.20 0.20 89 1014.3
20260506210716 12 203 0.0 3.2 0.00 0.20 0.20 90 1014.4
20260506210216 12 217 1.6 3.2 0.00 0.20 0.20 90 1014.4
20260506205217 12 198 3.2 4.8 0.00 0.20 0.20 91 1014.3
20260506204709 12 206 1.6 6.4 0.00 0.20 0.20 91 1014.3
20260506204218 12 232 1.6 6.4 0.00 0.20 0.20 91 1014.2
20260506203706 12 233 3.2 6.4 0.00 0.20 0.20 91 1014.3
20260506203205 12 240 3.2 6.4 0.00 0.20 0.20 90 1014.2
20260506202708 12 234 4.8 4.8 0.00 0.20 0.20 90 1014.2
20260506201708 12 212 0.0 4.8 0.00 0.20 0.20 91 1014.0
20260506201211 12 215 1.6 3.2 0.00 0.20 0.20 91 1014.0
20260506200734 12 198 1.6 3.2 0.00 0.20 0.20 91 1014.0
20260506200218 12 279 0.0 4.8 0.00 0.20 0.20 91 1014.0
20260506195718 12 198 0.0 4.8 0.00 0.20 0.20 91 1013.9
20260506194733 12 0 0.0 4.8 0.00 0.20 0.20 91 1013.7
20260506194219 12 222 3.2 8.0 0.00 0.20 0.20 91 1013.7
20260506193706 12 172 1.6 8.0 0.00 0.20 0.20 90 1013.6
20260506192708 12 163 3.2 6.4 0.00 0.20 0.20 90 1013.4
20260506192217 12 161 3.2 3.2 0.00 0.20 0.20 90 1013.4
20260506191723 12 140 0.0 3.2 0.00 0.20 0.20 90 1013.4
20260506191214 13 132 0.0 4.8 0.00 0.20 0.20 90 1013.3
20260506190713 13 195 0.0 9.7 0.03 0.20 0.20 90 1013.3
20260506185718 13 264 4.8 6.4 0.03 0.20 0.20 90 1013.2
20260506185210 13 210 1.6 6.4 0.05 0.20 0.20 90 1013.2
20260506184713 13 232 3.2 6.4 0.13 0.20 0.20 90 1013.1
20260506183717 13 7 1.6 8.0 0.18 0.20 0.20 89 1013.1
20260506182712 13 240 3.2 12.9 0.18 0.20 0.20 88 1013.0
20260506182219 12 246 4.8 12.9 0.18 0.20 0.20 88 1013.0
20260506181713 12 237 4.8 12.9 0.18 0.20 0.20 88 1012.8
20260506181231 12 236 1.6 12.9 0.20 0.20 0.20 88 1012.7
20260506180710 12 0 0.0 12.9 0.18 0.18 0.18 88 1012.6
20260506175709 12 185 3.2 8.0 0.18 0.18 0.18 88 1012.5
20260506174207 13 181 9.7 24.1 0.03 0.03 0.03 85 1012.5
20260506173713 13 182 9.7 24.1 0.03 0.03 0.03 84 1012.3
20260506173207 13 205 12.9 24.1 0.03 0.03 0.03 83 1012.3
20260506172714 13 229 8.0 22.5 0.03 0.03 0.03 82 1012.2
20260506172212 13 158 9.7 29.0 0.03 0.03 0.03 81 1012.3
20260506171714 13 188 11.3 30.6 0.00 0.00 0.00 80 1012.3
20260506171215 13 208 11.3 30.6 0.00 0.00 0.00 79 1011.7
20260506170212 15 227 11.3 22.5 0.00 0.00 0.00 71 1012.1
20260506165705 16 227 6.4 22.5 0.00 0.00 0.00 68 1011.9
20260506165209 16 37 6.4 16.1 0.00 0.00 0.00 62 1011.5
20260506164707 16 0 0.0 3.2 0.00 0.03 0.00 64 1011.3
20260506164206 17 338 3.2 16.1 0.00 0.05 0.00 65 1011.3
20260506163705 17 299 3.2 30.6 0.00 0.08 0.00 65 1011.2
20260506163219 17 296 3.2 30.6 0.00 0.10 0.00 63 1011.1
20260506162710 17 275 4.8 30.6 0.00 0.13 0.00 62 1011.0
20260506162228 17 261 6.4 22.5 0.00 0.15 0.00 62 1011.0
20260506161715 17 316 6.4 22.5 0.00 0.20 0.00 60 1011.0
20260506161209 17 9 3.2 19.3 0.00 0.23 0.00 62 1011.0